DAL500 KATL-KLAX

Flight info

Callsign DAL500
Flight time N/A
Altitude 40000
Route NASSA2 NASSA VLKNN Q30 IZAAC ELD MULQN FDRER EWM J4 WLVRN ESTWD HLYWD1
Aircraft A359/H-SDE2E3GHIJ3J4J5LM1ORWXY/LB1D1

Departure

Time N/A
Airport Hartsfield Jackson Atlanta International Airport (KATL)

Arrival

Time 2026-04-24 05:03
Airport Los Angeles International Airport (KLAX)
Time Latitude Longitude Altitude Speed Heading
2026-04-24 04:28 34.03055 -114.85921 37914 ft 412 kts 278°
2026-04-24 04:28 34.04163 -114.92712 37915 ft 412 kts 278°
2026-04-24 04:29 34.05260 -114.99442 37921 ft 412 kts 278°
2026-04-24 04:29 34.06376 -115.06246 37927 ft 412 kts 278°
2026-04-24 04:30 34.07482 -115.12993 37926 ft 413 kts 279°
2026-04-24 04:30 34.08591 -115.19813 37918 ft 413 kts 278°
2026-04-24 04:31 34.09685 -115.26591 37920 ft 412 kts 278°
2026-04-24 04:31 34.10788 -115.33354 37924 ft 413 kts 279°
2026-04-24 04:32 34.11891 -115.40138 37935 ft 413 kts 279°
2026-04-24 04:32 34.12984 -115.46979 37943 ft 413 kts 278°
2026-04-24 04:33 34.14059 -115.53787 37953 ft 414 kts 278°
2026-04-24 04:33 34.15078 -115.60643 37964 ft 413 kts 276°
2026-04-24 04:34 34.15646 -115.67384 37976 ft 413 kts 271°
2026-04-24 04:34 34.15712 -115.74273 37969 ft 410 kts 267°
2026-04-24 04:35 34.15555 -115.77669 37735 ft 406 kts 265°
2026-04-24 04:35 34.15279 -115.81027 37316 ft 401 kts 263°
2026-04-24 04:35 34.14959 -115.84360 36673 ft 400 kts 263°
2026-04-24 04:35 34.14634 -115.87702 35828 ft 404 kts 263°
2026-04-24 04:36 34.14304 -115.91042 34887 ft 409 kts 263°
2026-04-24 04:36 34.13970 -115.94469 33899 ft 415 kts 263°
2026-04-24 04:36 34.13637 -115.97923 32886 ft 421 kts 263°
2026-04-24 04:36 34.13299 -116.01435 31876 ft 427 kts 263°
2026-04-24 04:37 34.12959 -116.04993 30865 ft 431 kts 263°
2026-04-24 04:37 34.12609 -116.08601 30072 ft 433 kts 263°
2026-04-24 04:37 34.12253 -116.12231 29800 ft 437 kts 263°
2026-04-24 04:37 34.11892 -116.15854 29293 ft 441 kts 263°
2026-04-24 04:38 34.11522 -116.19532 28584 ft 443 kts 263°
2026-04-24 04:38 34.11149 -116.23232 27752 ft 445 kts 264°
2026-04-24 04:38 34.10780 -116.26904 27010 ft 441 kts 264°
2026-04-24 04:38 34.10417 -116.30515 26534 ft 437 kts 264°
2026-04-24 04:39 34.10045 -116.34116 25951 ft 433 kts 264°
2026-04-24 04:39 34.09665 -116.37715 25440 ft 426 kts 264°
2026-04-24 04:39 34.09295 -116.41186 25126 ft 415 kts 263°
2026-04-24 04:39 34.08926 -116.44584 24905 ft 403 kts 263°
2026-04-24 04:40 34.08564 -116.47894 24594 ft 394 kts 263°
2026-04-24 04:40 34.08213 -116.51091 24422 ft 381 kts 264°
2026-04-24 04:40 34.07874 -116.54202 24297 ft 368 kts 263°
2026-04-24 04:40 34.07549 -116.57184 24157 ft 356 kts 264°
2026-04-24 04:41 34.07239 -116.60117 23919 ft 347 kts 265°
2026-04-24 04:41 34.06976 -116.62987 23453 ft 346 kts 265°
2026-04-24 04:41 34.06727 -116.65775 23057 ft 343 kts 264°
2026-04-24 04:41 34.06475 -116.68560 22711 ft 339 kts 265°
2026-04-24 04:42 34.06233 -116.71187 22358 ft 337 kts 264°
2026-04-24 04:42 34.05975 -116.73968 21993 ft 334 kts 264°
2026-04-24 04:42 34.05714 -116.76727 21624 ft 332 kts 264°
2026-04-24 04:42 34.05453 -116.79497 21224 ft 331 kts 264°
2026-04-24 04:43 34.05195 -116.82224 20870 ft 328 kts 264°
2026-04-24 04:43 34.04939 -116.84937 20499 ft 326 kts 264°
2026-04-24 04:43 34.04682 -116.87652 20116 ft 325 kts 264°
2026-04-24 04:43 34.04380 -116.90305 19730 ft 324 kts 262°
2026-04-24 04:44 34.04033 -116.93008 19363 ft 322 kts 262°
2026-04-24 04:44 34.03690 -116.95628 19008 ft 320 kts 262°
2026-04-24 04:44 34.03345 -116.98270 18670 ft 317 kts 263°
2026-04-24 04:44 34.03004 -117.00898 18323 ft 316 kts 263°
2026-04-24 04:45 34.02667 -117.03499 17941 ft 315 kts 263°
2026-04-24 04:45 34.02359 -117.06078 17565 ft 314 kts 263°
2026-04-24 04:45 34.02059 -117.08667 17219 ft 311 kts 263°
2026-04-24 04:45 34.01756 -117.11255 16870 ft 309 kts 263°
2026-04-24 04:46 34.01454 -117.13798 16524 ft 307 kts 263°
2026-04-24 04:46 34.01154 -117.16321 16223 ft 302 kts 263°
2026-04-24 04:46 34.00859 -117.18786 15920 ft 298 kts 263°
2026-04-24 04:46 34.00566 -117.21235 15615 ft 294 kts 263°
2026-04-24 04:47 34.00274 -117.23671 15178 ft 296 kts 263°
2026-04-24 04:47 33.99978 -117.26142 14766 ft 296 kts 263°
2026-04-24 04:47 33.99684 -117.28594 14385 ft 295 kts 263°
2026-04-24 04:47 33.99392 -117.31014 14049 ft 292 kts 263°
2026-04-24 04:48 33.99110 -117.33424 13712 ft 290 kts 263°
2026-04-24 04:48 33.98828 -117.35831 13384 ft 287 kts 263°
2026-04-24 04:48 33.98550 -117.38195 13071 ft 284 kts 263°
2026-04-24 04:48 33.98275 -117.40533 12753 ft 282 kts 263°
2026-04-24 04:49 33.98002 -117.42844 12423 ft 281 kts 263°
2026-04-24 04:49 33.97729 -117.45158 12111 ft 278 kts 263°
2026-04-24 04:49 33.97520 -117.47433 12007 ft 266 kts 269°
2026-04-24 04:49 33.97617 -117.49613 11966 ft 262 kts 278°
2026-04-24 04:50 33.98006 -117.51772 11725 ft 261 kts 285°
2026-04-24 04:50 33.98490 -117.53856 11503 ft 260 kts 285°
2026-04-24 04:50 33.98987 -117.55951 11281 ft 261 kts 285°
2026-04-24 04:50 33.99483 -117.58044 11055 ft 260 kts 285°
2026-04-24 04:51 33.99978 -117.60138 10831 ft 259 kts 285°
2026-04-24 04:51 34.00475 -117.62244 10615 ft 259 kts 285°
2026-04-24 04:51 34.00962 -117.64313 10397 ft 259 kts 285°
2026-04-24 04:51 34.01453 -117.66399 10192 ft 259 kts 285°
2026-04-24 04:52 34.01931 -117.68488 9955 ft 258 kts 282°
2026-04-24 04:52 34.02131 -117.70612 9686 ft 257 kts 270°
2026-04-24 04:52 34.02003 -117.72767 9416 ft 257 kts 264°
2026-04-24 04:52 34.01793 -117.74887 9220 ft 252 kts 264°
2026-04-24 04:53 34.01580 -117.76956 9011 ft 248 kts 264°
2026-04-24 04:53 34.01374 -117.79002 8796 ft 244 kts 264°
2026-04-24 04:53 34.01171 -117.81044 8550 ft 242 kts 264°
2026-04-24 04:53 34.00973 -117.83054 8282 ft 242 kts 264°
2026-04-24 04:54 34.00779 -117.85040 7980 ft 243 kts 264°
2026-04-24 04:54 34.00580 -117.87066 7693 ft 243 kts 264°
2026-04-24 04:54 34.00382 -117.89086 7421 ft 243 kts 264°
2026-04-24 04:54 34.00183 -117.91106 7156 ft 243 kts 264°
2026-04-24 04:55 33.99985 -117.93115 6918 ft 243 kts 264°
2026-04-24 04:55 33.99787 -117.95143 6609 ft 243 kts 264°
2026-04-24 04:55 33.99589 -117.97173 6332 ft 243 kts 264°
2026-04-24 04:55 33.99392 -117.99183 6121 ft 240 kts 263°
2026-04-24 04:56 33.99196 -118.01152 5918 ft 236 kts 263°
2026-04-24 04:56 33.99002 -118.03091 5721 ft 231 kts 263°
2026-04-24 04:56 33.98809 -118.05004 5437 ft 227 kts 264°
2026-04-24 04:56 33.98652 -118.06881 5136 ft 223 kts 265°
2026-04-24 04:57 33.98500 -118.08718 4833 ft 220 kts 265°
2026-04-24 04:57 33.98332 -118.10524 4531 ft 216 kts 264°
2026-04-24 04:57 33.98152 -118.12308 4236 ft 213 kts 264°
2026-04-24 04:57 33.97967 -118.14038 3967 ft 208 kts 263°
2026-04-24 04:58 33.97784 -118.15718 3913 ft 199 kts 263°
2026-04-24 04:58 33.97602 -118.17384 3757 ft 198 kts 263°
2026-04-24 04:58 33.97425 -118.19016 3513 ft 197 kts 263°
2026-04-24 04:58 33.97249 -118.20641 3255 ft 194 kts 263°
2026-04-24 04:59 33.97078 -118.22237 2996 ft 187 kts 263°
2026-04-24 04:59 33.96917 -118.23749 2754 ft 178 kts 263°
2026-04-24 04:59 33.96767 -118.25179 2525 ft 169 kts 263°
2026-04-24 04:59 33.96624 -118.26542 2310 ft 159 kts 263°
2026-04-24 05:00 33.96491 -118.27818 2102 ft 147 kts 263°
2026-04-24 05:00 33.96366 -118.29019 1926 ft 143 kts 262°
2026-04-24 05:00 33.96243 -118.30200 1748 ft 142 kts 262°
2026-04-24 05:00 33.96121 -118.31368 1566 ft 140 kts 263°
2026-04-24 05:01 33.96003 -118.32507 1388 ft 139 kts 263°
2026-04-24 05:01 33.95881 -118.33682 1207 ft 141 kts 262°
2026-04-24 05:01 33.95762 -118.34843 1013 ft 140 kts 263°
2026-04-24 05:01 33.95645 -118.36001 812 ft 139 kts 262°
2026-04-24 05:02 33.95521 -118.37152 636 ft 137 kts 262°
2026-04-24 05:02 33.95401 -118.38296 453 ft 136 kts 263°
2026-04-24 05:02 33.95288 -118.39411 281 ft 135 kts 263°
2026-04-24 05:02 33.95175 -118.40538 130 ft 131 kts 263°
2026-04-24 05:03 33.95083 -118.41454 129 ft 87 kts 263°
2026-04-24 05:03 33.95034 -118.41928 127 ft 29 kts 262°
2026-04-24 05:03 33.94956 -118.42160 125 ft 30 kts 232°
2026-04-24 05:03 33.94849 -118.42284 123 ft 16 kts 191°
2026-04-24 05:04 33.94748 -118.42237 122 ft 15 kts 147°
2026-04-24 05:04 33.94694 -118.42160 123 ft 11 kts 103°
2026-04-24 05:04 33.94700 -118.42060 125 ft 12 kts 82°
2026-04-24 05:04 33.94712 -118.41952 125 ft 13 kts 83°
2026-04-24 05:05 33.94725 -118.41830 125 ft 15 kts 83°
2026-04-24 05:05 33.94740 -118.41688 125 ft 17 kts 83°
2026-04-24 05:05 33.94756 -118.41533 126 ft 19 kts 84°
2026-04-24 05:05 33.94785 -118.41373 127 ft 20 kts 77°
2026-04-24 05:06 33.94804 -118.41203 128 ft 21 kts 82°
2026-04-24 05:06 33.94824 -118.41020 128 ft 23 kts 84°
2026-04-24 05:06 33.94843 -118.40823 128 ft 24 kts 83°
2026-04-24 05:06 33.94865 -118.40603 125 ft 23 kts 83°
2026-04-24 05:07 33.94884 -118.40435 124 ft 18 kts 83°
2026-04-24 05:07 33.94891 -118.40346 122 ft 9 kts 89°
2026-04-24 05:07 33.94847 -118.40292 122 ft 11 kts 175°
2026-04-24 05:07 33.94799 -118.40293 122 ft 4 kts 175°
2026-04-24 05:08 33.94774 -118.40298 122 ft 2 kts 219°
2026-04-24 05:08 33.94765 -118.40326 122 ft 2 kts 252°
2026-04-24 05:08 33.94757 -118.40340 122 ft 2 kts 229°
2026-04-24 05:08 33.94743 -118.40356 122 ft 0 kts 223°
2026-04-24 05:09 33.94743 -118.40357 122 ft 0 kts 223°